Ord, NE

10:51 AM CDT on June 26, 2017 (GMT -0500)
Sharp

Weather History for KODX - December, 2012

Change the Weather History Date:

Tuesday, December 4, 2012

  Actual Average Record
Temperature  
Mean Temperature 38 °F 28 °F  
Max Temperature 60 °F 39 °F 63 °F (2007)
Min Temperature 15 °F 16 °F -7 °F (2011)
Degree Days  
Heating Degree Days 27 37  
Month to date heating degree days 89 147  
Since 1 July heating degree days 1615 1628  
Cooling Degree Days 0 0  
Month to date cooling degree days 0 0  
Year to date cooling degree days 1220 845  
Moisture  
Dew Point 17 °F    
Average Humidity 52    
Maximum Humidity 84    
Minimum Humidity 19    
Precipitation  
Precipitation 0.00 in 0.04 in 0.96 in (1947)
Month to date precipitation 0.00 0.19  
Year to date precipitation 11.49 24.54  
Sea Level Pressure  
Sea Level Pressure 30.27 in    
Wind  
Wind Speed 3 mph (NW)    
Max Wind Speed 10 mph    
Max Gust Speed 13 mph    
Visibility 10 miles    
Events      
T = Trace of Precipitation, MM = Missing Value Source: NWS Daily Summary

Daily Weather History Graph

Daily Weather History Graph

Search for Another Location

Airport or City:

Trip Planner

Search our weather history database for the weather conditions in past years. The results will help you decide how hot, cold, wet, or windy it might be!

Date:

Astronomy

Dec. 04, 2012 Rise Set
Actual Time 7:46 AM CST 5:05 PM CST
Civil Twilight 7:15 AM CST 5:36 PM CST
Nautical Twilight 6:40 AM CST 6:11 PM CST
Astronomical Twilight 6:07 AM CST 6:45 PM CST
Moon 10:57 PM CST (12/4) 11:38 AM CST (12/4)
Length of Visible Light 10h 21m
Length of Day
9h 19m
Waning Gibbous, 69% of the Moon is Illuminated
Dec 4
Waning Gibbous
Dec 6
Last Quarter
Dec 13
New
Dec 19
First Quarter
Dec 28
Full

Hourly Weather History & Observations

Time (CST) Temp. Windchill Dew Point Humidity Pressure Visibility Wind Dir Wind Speed Gust Speed Precip Events Conditions
12:53 AM 18.0 °F 11.1 °F 12.9 °F 81% 30.18 in 10.0 mi WNW 4.6 mph - N/A   Clear
1:53 AM 23.0 °F 18.4 °F 16.0 °F 74% 30.18 in 10.0 mi NNW 3.5 mph - N/A   Clear
2:53 AM 21.0 °F - 15.1 °F 78% 30.19 in 10.0 mi Calm Calm - N/A   Clear
3:53 AM 19.0 °F - 12.9 °F 77% 30.21 in 10.0 mi Calm Calm - N/A   Clear
4:53 AM 18.0 °F 12.7 °F 12.0 °F 78% 30.23 in 10.0 mi NNW 3.5 mph - N/A   Clear
5:53 AM 19.9 °F - 15.1 °F 81% 30.27 in 10.0 mi Calm Calm - N/A   Clear
6:53 AM 21.0 °F 16.2 °F 15.1 °F 78% 30.30 in 10.0 mi WNW 3.5 mph - N/A   Clear
7:53 AM 19.9 °F 13.4 °F 15.1 °F 81% 30.33 in 10.0 mi NW 4.6 mph - N/A   Clear
8:53 AM 27.0 °F 23.0 °F 21.0 °F 78% 30.34 in 10.0 mi NW 3.5 mph - N/A   Clear
9:53 AM 36.0 °F 30.3 °F 24.1 °F 62% 30.35 in 10.0 mi NNW 6.9 mph - N/A   Clear
10:53 AM 44.1 °F 42.5 °F 25.0 °F 47% 30.35 in 10.0 mi NNW 3.5 mph - N/A   Clear
11:53 AM 52.0 °F - 23.0 °F 32% 30.32 in 10.0 mi North 3.5 mph - N/A   Clear
12:53 PM 55.9 °F - 21.0 °F 26% 30.30 in 10.0 mi NNW 5.8 mph - N/A   Clear
1:53 PM 57.9 °F - 18.0 °F 21% 30.26 in 10.0 mi NNW 8.1 mph - N/A   Clear
2:53 PM 59.0 °F - 18.0 °F 20% 30.24 in 10.0 mi NW 4.6 mph - N/A   Clear
3:53 PM 55.0 °F - 17.1 °F 23% 30.26 in 10.0 mi West 3.5 mph - N/A   Clear
4:53 PM 44.1 °F 40.8 °F 17.1 °F 34% 30.28 in 10.0 mi South 5.8 mph - N/A   Clear
5:53 PM 35.1 °F 30.1 °F 16.0 °F 46% 30.29 in 10.0 mi SSW 5.8 mph - N/A   Clear
6:53 PM 41.0 °F - 17.1 °F 38% 30.27 in 10.0 mi Calm Calm - N/A   Clear
7:53 PM 32.0 °F - 16.0 °F 52% 30.30 in 10.0 mi Calm Calm - N/A   Clear
8:53 PM 28.0 °F 24.2 °F 15.1 °F 58% 30.29 in 10.0 mi SSW 3.5 mph - N/A   Clear
9:53 PM 32.0 °F - 17.1 °F 54% 30.28 in 10.0 mi Calm Calm - N/A   Clear
10:53 PM 30.0 °F 26.5 °F 16.0 °F 56% 30.26 in 10.0 mi SSE 3.5 mph - N/A   Clear
11:53 PM 27.0 °F - 16.0 °F 63% 30.25 in 10.0 mi Calm Calm - N/A   Clear